| time (UTC) | temp F | wind direction | speed MPH | gust MPH | rain 1hr in | rain 24hr in | rain mn in | humidity % | barometer mb |
| 20260505014206 | 56 | 152 | 0.0 | 0.0 | 0.00 | 0.09 | 0.09 | 58 | 1012.1 |
| 20260505013706 | 56 | 152 | 0.0 | 0.0 | 0.00 | 0.09 | 0.09 | 57 | 1012.1 |
| 20260505013206 | 56 | 152 | 0.0 | 0.0 | 0.00 | 0.09 | 0.09 | 57 | 1012.0 |
| 20260505012206 | 57 | 152 | 0.0 | 1.0 | 0.00 | 0.09 | 0.09 | 55 | 1012.2 |
| 20260505011705 | 57 | 152 | 0.0 | 0.0 | 0.00 | 0.09 | 0.09 | 55 | 1012.1 |
| 20260505011206 | 57 | 152 | 0.0 | 0.0 | 0.00 | 0.09 | 0.09 | 54 | 1012.0 |
| 20260505010706 | 57 | 152 | 0.0 | 0.0 | 0.00 | 0.09 | 0.09 | 55 | 1012.1 |
| 20260505005705 | 57 | 152 | 0.0 | 3.0 | 0.00 | 0.09 | 0.09 | 55 | 1012.1 |
| 20260505005205 | 57 | 152 | 1.0 | 3.0 | 0.00 | 0.09 | 0.09 | 54 | 1012.1 |
| 20260505004705 | 58 | 201 | 2.0 | 9.0 | 0.00 | 0.09 | 0.09 | 53 | 1012.1 |
| 20260505003205 | 59 | 5 | 0.0 | 3.0 | 0.00 | 0.09 | 0.09 | 51 | 1012.3 |
| 20260505002705 | 59 | 9 | 1.0 | 3.0 | 0.00 | 0.09 | 0.09 | 51 | 1012.2 |
| 20260505002205 | 59 | 254 | 0.0 | 2.0 | 0.00 | 0.09 | 0.09 | 50 | 1012.3 |
| 20260505000705 | 60 | 292 | 1.0 | 3.0 | 0.00 | 0.09 | 0.09 | 47 | 1012.0 |
| 20260505000206 | 60 | 292 | 0.0 | 3.0 | 0.00 | 0.09 | 0.09 | 48 | 1011.8 |
| 20260504235206 | 60 | 292 | 0.0 | 1.0 | 0.00 | 0.09 | 0.09 | 47 | 1011.6 |
| 20260504234705 | 60 | 292 | 2.0 | 3.0 | 0.00 | 0.09 | 0.09 | 46 | 1011.6 |
| 20260504234206 | 60 | 353 | 1.0 | 5.0 | 0.00 | 0.09 | 0.09 | 46 | 1011.4 |
| 20260504233705 | 60 | 358 | 3.0 | 8.0 | 0.00 | 0.09 | 0.09 | 45 | 1011.4 |
| 20260504232705 | 60 | 317 | 0.0 | 8.0 | 0.00 | 0.09 | 0.09 | 45 | 1011.3 |
| 20260504232205 | 60 | 286 | 2.0 | 8.0 | 0.00 | 0.09 | 0.09 | 44 | 1011.4 |
| 20260504231705 | 61 | 308 | 2.0 | 7.0 | 0.00 | 0.09 | 0.09 | 43 | 1011.3 |
| 20260504231206 | 61 | 352 | 4.0 | 12.0 | 0.00 | 0.09 | 0.09 | 42 | 1011.3 |
| 20260504230705 | 61 | 348 | 3.0 | 12.0 | 0.00 | 0.09 | 0.09 | 41 | 1011.2 |
| 20260504230205 | 62 | 11 | 5.0 | 12.0 | 0.00 | 0.09 | 0.09 | 40 | 1011.2 |
| 20260504225705 | 62 | 4 | 4.0 | 13.0 | 0.00 | 0.09 | 0.09 | 41 | 1011.2 |
| 20260504225205 | 63 | 0 | 6.0 | 10.0 | 0.00 | 0.09 | 0.09 | 40 | 1011.2 |
| 20260504224705 | 62 | 19 | 5.0 | 12.0 | 0.00 | 0.09 | 0.09 | 40 | 1011.2 |
| 20260504224205 | 62 | 341 | 3.0 | 9.0 | 0.00 | 0.09 | 0.09 | 41 | 1011.3 |
| 20260504223705 | 61 | 11 | 2.0 | 8.0 | 0.00 | 0.09 | 0.09 | 42 | 1011.2 |
| 20260504222705 | 61 | 340 | 1.0 | 6.0 | 0.00 | 0.09 | 0.09 | 42 | 1011.4 |
| 20260504222205 | 61 | 0 | 2.0 | 9.0 | 0.00 | 0.09 | 0.09 | 41 | 1011.4 |
| 20260504221706 | 62 | 10 | 5.0 | 12.0 | 0.00 | 0.09 | 0.09 | 40 | 1011.4 |
| 20260504221205 | 62 | 331 | 4.0 | 10.0 | 0.00 | 0.09 | 0.09 | 39 | 1011.3 |
| 20260504220705 | 62 | 345 | 3.0 | 10.0 | 0.00 | 0.09 | 0.09 | 38 | 1011.2 |
| 20260504220205 | 63 | 351 | 4.0 | 16.0 | 0.00 | 0.09 | 0.09 | 37 | 1011.0 |
| 20260504215705 | 63 | 27 | 5.0 | 12.0 | 0.00 | 0.09 | 0.09 | 35 | 1010.7 |
| 20260504215205 | 63 | 350 | 5.0 | 12.0 | 0.00 | 0.09 | 0.09 | 36 | 1010.6 |
| 20260504214706 | 64 | 8 | 2.0 | 15.0 | 0.00 | 0.09 | 0.09 | 35 | 1010.5 |
| 20260504214205 | 65 | 17 | 7.0 | 14.0 | 0.00 | 0.09 | 0.09 | 33 | 1010.4 |
| 20260504213705 | 67 | 20 | 5.0 | 20.0 | 0.00 | 0.09 | 0.09 | 32 | 1010.3 |
| 20260504213205 | 67 | 56 | 3.0 | 8.0 | 0.00 | 0.09 | 0.09 | 27 | 1009.9 |
| 20260504212706 | 67 | 52 | 3.0 | 6.0 | 0.00 | 0.09 | 0.09 | 30 | 1010.0 |
| 20260504212205 | 67 | 116 | 1.0 | 5.0 | 0.00 | 0.09 | 0.09 | 32 | 1009.9 |
| 20260504211705 | 66 | 193 | 1.0 | 3.0 | 0.00 | 0.09 | 0.09 | 34 | 1010.0 |
| 20260504211205 | 65 | 193 | 0.0 | 0.0 | 0.00 | 0.09 | 0.09 | 35 | 1010.1 |
| 20260504210705 | 65 | 193 | 0.0 | 1.0 | 0.00 | 0.09 | 0.09 | 34 | 1010.2 |
| 20260504210205 | 65 | 193 | 1.0 | 3.0 | 0.00 | 0.09 | 0.09 | 37 | 1010.3 |
| 20260504204705 | 63 | 325 | 0.0 | 2.0 | 0.00 | 0.09 | 0.09 | 43 | 1010.4 |
| 20260504204206 | 62 | 325 | 1.0 | 3.0 | 0.00 | 0.09 | 0.09 | 44 | 1010.5 |
| 20260504203205 | 60 | 325 | 0.0 | 2.0 | 0.00 | 0.09 | 0.09 | 47 | 1011.0 |
| 20260504202705 | 60 | 250 | 1.0 | 3.0 | 0.00 | 0.09 | 0.09 | 51 | 1011.0 |
| 20260504202205 | 60 | 11 | 0.0 | 1.0 | 0.01 | 0.09 | 0.09 | 49 | 1011.1 |
| 20260504201706 | 59 | 11 | 2.0 | 5.0 | 0.01 | 0.09 | 0.09 | 50 | 1011.2 |
| 20260504201204 | 58 | 47 | 2.0 | 5.0 | 0.03 | 0.09 | 0.09 | 52 | 1011.3 |
| 20260504200705 | 58 | 36 | 2.0 | 6.0 | 0.07 | 0.09 | 0.09 | 59 | 1011.4 |
| 20260504200206 | 57 | 9 | 2.0 | 8.0 | 0.09 | 0.09 | 0.09 | 58 | 1011.4 |
| 20260504195205 | 56 | 101 | 1.0 | 2.0 | 0.09 | 0.09 | 0.09 | 72 | 1011.1 |
| 20260504194705 | 56 | 101 | 0.0 | 1.0 | 0.09 | 0.09 | 0.09 | 74 | 1011.4 |
| 20260504194205 | 55 | 101 | 0.0 | 3.0 | 0.09 | 0.09 | 0.09 | 72 | 1011.5 |
| 20260504193705 | 56 | 188 | 1.0 | 2.0 | 0.09 | 0.09 | 0.09 | 72 | 1011.6 |
| 20260504192705 | 56 | 191 | 1.0 | 5.0 | 0.09 | 0.09 | 0.09 | 67 | 1011.8 |
| 20260504191704 | 59 | 198 | 3.0 | 9.0 | 0.08 | 0.08 | 0.08 | 57 | 1011.5 |
| 20260504191205 | 61 | 182 | 3.0 | 15.0 | 0.06 | 0.06 | 0.06 | 50 | 1011.2 |
| 20260504190705 | 63 | 200 | 7.0 | 26.0 | 0.02 | 0.02 | 0.02 | 41 | 1011.1 |
| 20260504190206 | 65 | 168 | 5.0 | 14.0 | 0.00 | 0.00 | 0.00 | 35 | 1010.9 |
| 20260504185205 | 67 | 177 | 9.0 | 16.0 | 0.00 | 0.00 | 0.00 | 27 | 1010.6 |
| 20260504184705 | 68 | 173 | 2.0 | 9.0 | 0.00 | 0.00 | 0.00 | 24 | 1010.6 |
| 20260504184205 | 68 | 32 | 6.0 | 13.0 | 0.00 | 0.00 | 0.00 | 23 | 1010.6 |
| 20260504183705 | 69 | 5 | 2.0 | 5.0 | 0.00 | 0.00 | 0.00 | 21 | 1010.4 |
| 20260504183206 | 69 | 78 | 3.0 | 10.0 | 0.00 | 0.00 | 0.00 | 23 | 1010.4 |
| 20260504182705 | 69 | 53 | 5.0 | 7.0 | 0.00 | 0.00 | 0.00 | 21 | 1010.3 |
| 20260504181705 | 70 | 297 | 4.0 | 9.0 | 0.00 | 0.00 | 0.00 | 22 | 1010.3 |
| 20260504181205 | 70 | 352 | 5.0 | 9.0 | 0.00 | 0.00 | 0.00 | 21 | 1010.3 |
| 20260504180705 | 71 | 339 | 4.0 | 12.0 | 0.00 | 0.00 | 0.00 | 21 | 1010.4 |
| 20260504180205 | 71 | 14 | 5.0 | 13.0 | 0.00 | 0.00 | 0.00 | 21 | 1010.4 |
| 20260504175705 | 72 | 14 | 4.0 | 10.0 | 0.00 | 0.00 | 0.00 | 22 | 1010.4 |
| 20260504175204 | 73 | 350 | 6.0 | 14.0 | 0.00 | 0.00 | 0.00 | 21 | 1010.5 |
| 20260504174705 | 72 | 358 | 2.0 | 6.0 | 0.00 | 0.00 | 0.00 | 23 | 1010.5 |
| 20260504174205 | 72 | 355 | 2.0 | 9.0 | 0.00 | 0.00 | 0.00 | 23 | 1010.6 |
| 20260504173705 | 72 | 22 | 4.0 | 9.0 | 0.00 | 0.00 | 0.00 | 22 | 1010.7 |
| 20260504172705 | 72 | 48 | 3.0 | 6.0 | 0.00 | 0.00 | 0.00 | 23 | 1011.0 |
| 20260504172205 | 72 | 34 | 3.0 | 6.0 | 0.00 | 0.00 | 0.00 | 23 | 1010.9 |
| 20260504171704 | 71 | 355 | 1.0 | 5.0 | 0.00 | 0.00 | 0.00 | 24 | 1011.0 |
| 20260504171205 | 71 | 71 | 2.0 | 5.0 | 0.00 | 0.00 | 0.00 | 24 | 1011.1 |
| 20260504160204 | 65 | 223 | 1.0 | 3.0 | 0.00 | 0.00 | 0.00 | 29 | 1011.8 |
| 20260504150705 | 60 | 224 | 1.0 | 3.0 | 0.00 | 0.00 | 0.00 | 33 | 1012.0 |
| 20260504150204 | 59 | 285 | 1.0 | 3.0 | 0.00 | 0.00 | 0.00 | 35 | 1012.0 |
| 20260504141204 | 53 | 254 | 0.0 | 0.0 | 0.00 | 0.00 | 0.00 | 44 | 1012.1 |
| 20260504140704 | 52 | 254 | 0.0 | 0.0 | 0.00 | 0.00 | 0.00 | 43 | 1012.1 |
| 20260504140205 | 52 | 254 | 0.0 | 0.0 | 0.00 | 0.00 | 0.00 | 44 | 1012.1 |
| 20260504130705 | 45 | 46 | 0.0 | 2.0 | 0.00 | 0.00 | 0.00 | 59 | 1012.0 |
| 20260504130205 | 45 | 46 | 0.0 | 1.0 | 0.00 | 0.00 | 0.00 | 58 | 1011.9 |
| 20260504110704 | 42 | 46 | 0.0 | 0.0 | 0.00 | 0.00 | 0.00 | 59 | 1011.8 |
| 20260504110204 | 42 | 46 | 0.0 | 0.0 | 0.00 | 0.00 | 0.00 | 59 | 1011.9 |
| 20260504100204 | 43 | 46 | 0.0 | 0.0 | 0.00 | 0.00 | 0.00 | 57 | 1012.2 |
| 20260504081704 | 50 | 46 | 0.0 | 0.0 | 0.00 | 0.00 | 0.00 | 45 | 1012.8 |
| 20260504081204 | 51 | 46 | 0.0 | 0.0 | 0.00 | 0.00 | 0.00 | 45 | 1012.8 |
| 20260504080204 | 52 | 46 | 0.0 | 0.0 | 0.00 | 0.00 | 0.00 | 43 | 1012.8 |
| 20260504070204 | 56 | 46 | 0.0 | 1.0 | 0.00 | 0.00 | 0.00 | 34 | 1013.3 |
| 20260504060204 | 59 | 265 | 1.0 | 3.0 | 0.00 | 0.00 | 0.00 | 30 | 1012.9 |
| 20260504050704 | 61 | 211 | 3.0 | 10.0 | 0.00 | 0.00 | 0.00 | 29 | 1013.0 |
| 20260504050203 | 61 | 238 | 3.0 | 9.0 | 0.00 | 0.00 | 0.00 | 29 | 1013.1 |
| 20260504045704 | 61 | 241 | 2.0 | 8.0 | 0.00 | 0.00 | 0.00 | 29 | 1013.1 |
| 20260504045204 | 61 | 295 | 1.0 | 8.0 | 0.00 | 0.00 | 0.00 | 29 | 1013.2 |
| 20260504044704 | 61 | 273 | 1.0 | 5.0 | 0.00 | 0.00 | 0.00 | 29 | 1013.2 |
| 20260504044204 | 61 | 228 | 1.0 | 6.0 | 0.00 | 0.00 | 0.00 | 29 | 1013.2 |
| 20260504043704 | 61 | 272 | 1.0 | 6.0 | 0.00 | 0.00 | 0.00 | 29 | 1013.2 |
| 20260504042704 | 62 | 238 | 0.0 | 3.0 | 0.00 | 0.00 | 0.00 | 29 | 1013.3 |
| 20260504042204 | 62 | 238 | 1.0 | 3.0 | 0.00 | 0.00 | 0.00 | 29 | 1013.3 |
| 20260504041204 | 62 | 235 | 1.0 | 6.0 | 0.00 | 0.00 | 0.00 | 29 | 1013.3 |
| 20260504040704 | 62 | 248 | 1.0 | 5.0 | 0.00 | 0.00 | 0.00 | 29 | 1013.4 |
| 20260504035704 | 62 | 274 | 2.0 | 7.0 | 0.00 | 0.00 | 0.00 | 29 | 1013.5 |
| 20260504034703 | 62 | 243 | 2.0 | 8.0 | 0.00 | 0.00 | 0.00 | 29 | 1013.6 |
| 20260504034204 | 61 | 255 | 2.0 | 8.0 | 0.00 | 0.00 | 0.00 | 29 | 1013.6 |
| 20260504033704 | 61 | 266 | 2.0 | 5.0 | 0.00 | 0.00 | 0.00 | 30 | 1013.6 |
| 20260504033203 | 61 | 197 | 1.0 | 5.0 | 0.00 | 0.00 | 0.00 | 30 | 1013.6 |
| 20260504032703 | 61 | 243 | 1.0 | 3.0 | 0.00 | 0.00 | 0.00 | 31 | 1013.6 |
| 20260504032203 | 61 | 161 | 0.0 | 1.0 | 0.00 | 0.00 | 0.00 | 31 | 1013.6 |
| 20260504031204 | 61 | 161 | 0.0 | 2.0 | 0.00 | 0.00 | 0.00 | 32 | 1013.6 |
| 20260504025704 | 61 | 153 | 0.0 | 3.0 | 0.00 | 0.00 | 0.00 | 32 | 1013.6 |
| 20260504024704 | 62 | 101 | 0.0 | 2.0 | 0.00 | 0.00 | 0.00 | 32 | 1013.5 |
| 20260504024204 | 62 | 101 | 0.0 | 2.0 | 0.00 | 0.00 | 0.00 | 31 | 1013.4 |
| 20260504023704 | 62 | 101 | 0.0 | 0.0 | 0.00 | 0.00 | 0.00 | 31 | 1013.5 |
| 20260504023204 | 62 | 101 | 0.0 | 2.0 | 0.00 | 0.00 | 0.00 | 31 | 1013.6 |
| 20260504022704 | 63 | 101 | 0.0 | 1.0 | 0.00 | 0.00 | 0.00 | 31 | 1013.6 |
| 20260504022204 | 63 | 101 | 0.0 | 1.0 | 0.00 | 0.00 | 0.00 | 30 | 1013.6 |
| 20260504021706 | 64 | 101 | 0.0 | 0.0 | 0.00 | 0.00 | 0.00 | 30 | 1013.6 |
| 20260504021205 | 64 | 101 | 0.0 | 1.0 | 0.00 | 0.00 | 0.00 | 30 | 1013.6 |
| 20260504020706 | 64 | 101 | 0.0 | 0.0 | 0.00 | 0.00 | 0.00 | 29 | 1013.4 |
| 20260504015706 | 65 | 101 | 0.0 | 1.0 | 0.00 | 0.00 | 0.00 | 27 | 1013.4 |
| 20260504015205 | 65 | 101 | 1.0 | 2.0 | 0.00 | 0.00 | 0.00 | 27 | 1013.4 |
| 20260504014705 | 65 | 101 | 0.0 | 0.0 | 0.00 | 0.00 | 0.00 | 27 | 1013.3 |